This is the latest recevied weather packets stored in our database for station/object N8WJW. If no packets are shown the sender has not sent any weather packets the latest 10 day(s).
| Time | Temp. | Humidity | Pressure | Rain* | Wind** | Luminosity | Snow |
|---|---|---|---|---|---|---|---|
| 1777591253 | 8.89° C | 61% | 1015.4 hPa | 0 mm | - | 25 W/m² | - |
| 1777590948 | 8.89° C | 59% | 1015.2 hPa | 0 mm | - | 27 W/m² | - |
| 1777590644 | 8.89° C | 57% | 1015.1 hPa | 0 mm | - | 28 W/m² | - |
| 1777590341 | 8.89° C | 59% | 1015.2 hPa | 0 mm | - | 30 W/m² | - |
| 1777590039 | 8.89° C | 58% | 1015.1 hPa | 0 mm | - | 31 W/m² | - |
| 1777589735 | 9.44° C | 56% | 1015.2 hPa | 0 mm | - | 33 W/m² | - |
| 1777589433 | 9.44° C | 57% | 1015.3 hPa | 0 mm | - | 35 W/m² | - |
| 1777589129 | 10° C | 53% | 1015.3 hPa | 0 mm | - | 40 W/m² | - |
| 1777588825 | 10.56° C | 54% | 1015.2 hPa | 0 mm | - | 81 W/m² | - |
| 1777588521 | 10.56° C | 51% | 1015.2 hPa | 0 mm | - | 139 W/m² | - |
| 1777588216 | 11.11° C | 51% | 1015.2 hPa | 0 mm | - | 184 W/m² | - |
| 1777587912 | 11.67° C | 55% | 1015.1 hPa | 0 mm | - | 199 W/m² | - |
| 1777587608 | 11.11° C | 53% | 1015.3 hPa | 0 mm | - | 224 W/m² | - |
| 1777587302 | 11.11° C | 52% | 1015.2 hPa | 0 mm | - | 238 W/m² | - |
| 1777586998 | 11.67° C | 53% | 1015.1 hPa | 0 mm | - | 91 W/m² | - |
| 1777586694 | 11.11° C | 52% | 1015.2 hPa | 0 mm | - | 266 W/m² | - |
| 1777586390 | 11.67° C | 54% | 1015.1 hPa | 0 mm | - | 287 W/m² | - |
| 1777586089 | 11.67° C | 52% | 1015.1 hPa | 0 mm | - | 317 W/m² | - |
| 1777585788 | 12.22° C | 52% | 1015.2 hPa | 0 mm | - | 333 W/m² | - |
| 1777585482 | 11.11° C | 54% | 1014.9 hPa | 0 mm | - | 341 W/m² | - |
| 1777585179 | 11.67° C | 52% | 1014.9 hPa | 0 mm | - | 379 W/m² | - |
| 1777584874 | 12.22° C | 55% | 1014.9 hPa | 0 mm | - | 391 W/m² | - |
| 1777584572 | 11.11° C | 60% | 1015 hPa | 0 mm | - | 405 W/m² | - |
| 1777584269 | 11.11° C | 58% | 1014.9 hPa | 0 mm | - | 117 W/m² | - |
| 1777583969 | 10° C | 59% | 1015.1 hPa | 0 mm | - | 69 W/m² | - |
* Rain latest hour (hover to see other rain measurements)
** Current wind speed in m/s (hover to see current wind gust speed)